カタログに戻る

FENGYUN 1C DEB

運用中SSO
NORAD 31646·DEBRIS·🇨🇳 China

打ち上げ May 10, 1999 から Taiyuan Satellite Launch Center

Loading…

次のパス (今後24時間)

TLE

最新Source: Space-Track

元期: Sep 13, 2026, 07:01 UTC

1 31646U 99025CBC 26256.29268446  .00000499  00000-0  28069-3 0  9997
2 31646  98.6720 276.5861 0034081 149.1424 211.1762 14.14573452670728

AllMySatでFENGYUN 1C DEBをリアルタイム追跡

Download on the App Store